Terminal Aerodrome Forecast
Issued by NWS

Home | Current Version | Previous Version | Text Only | Print | Product List | Glossary On
Versions: 1 2 3 4 5 6 7 8 9 10 11 12 13 14 15 16 17 18 19 20
506
FTUS41 KGYX 042320
TAFAUG
TAF
KAUG 042320Z 0500/0524 VRB03KT P6SM SKC
     FM051400 VRB03KT P6SM BKN050 OVC100
     FM051600 VRB04KT 2SM -SN BR OVC020
     FM051900 03004KT 1 1/2SM -SN BR OVC012=

USA.gov is the U.S. government's official web portal to all federal, state and local government web resources and services.